Home   Weather   Sidney   Past weeks

Flag for USA Past Weather in Sidney, Montana, USA — Yesterday and Last 2 Weeks

Now
66 °F

Clear.


Feels Like: 66 °F
Forecast: 56 / 89 °F
Wind: 7 mph from North

Location: Sidney-Richland

Current Time: Jul 26, 2017 at 12:47:03 am

Latest Report: Jul 25, 2017 at 11:56 pm


Visibility: 10 mi

Pressure: 30.06 "Hg (28.05 "Hg at 591m altitude)

Humidity: 43%

Dew Point: 43 °F

Location of SidneyLocation

Past Weather in Sidney — Graph

°F

Sidney Temperature Yesterday

Maximum temperature yesterday: 87 °F (at 4:56 pm)
Minimum temperature yesterday: 65 °F (at 5:56 am)
Average temperature yesterday: 76 °F

High & Low Weather Summary for the Past Weeks

 TemperatureHumidityPressure
High100 °F (Jul 14, 3:56 pm)100% (Jul 12, 6:38 am)30.24 "Hg (Jul 12, 6:38 am)
Low51 °F (Jul 22, 4:56 am)11% (Jul 21, 3:56 pm)29.62 "Hg (Jul 11, 3:56 am)
Average75 °F50%29.93 "Hg
* Reported Jul 10 10:56 pm — Jul 25 10:56 pm, Sidney. Weather by CustomWeather, © 2017

Note: Actual official high and low records may vary slightly from our data, if they occured in-between our weather recording intervals... More about our weather records

Advertising

Sidney Weather History for the Previous 24 Hours

Scroll right to see more
 ConditionsComfort  
Time TempWeatherWind HumidityBarometerVisibility
10:56 pm
Tue, Jul 25
69 °FClear.6 mph39%30.03 "Hg10 mi
9:56 pm70 °FClear.5 mph39%30.03 "Hg10 mi
8:56 pm78 °FClear.8 mph31%30.01 "Hg10 mi
7:56 pm83 °FPartly sunny.6 mph26%29.99 "Hg10 mi
6:56 pm86 °FSunny.9 mph23%29.98 "Hg10 mi
5:56 pm86 °FSunny.8 mph23%29.98 "Hg10 mi
4:56 pm87 °FSunny.9 mph22%29.98 "Hg10 mi
3:56 pm86 °FSunny.9 mph22%29.99 "Hg10 mi
2:56 pm85 °FSunny.8 mph23%29.98 "Hg10 mi
1:56 pm84 °FSunny.9 mph25%29.98 "Hg10 mi
12:56 pm82 °FSunny.12 mph26%29.99 "Hg10 mi
11:56 am78 °FSunny.13 mph32%30.00 "Hg10 mi
10:56 am76 °FSunny.14 mph35%30.01 "Hg10 mi
9:56 am74 °FPassing clouds.13 mph37%30.01 "Hg10 mi
8:56 am71 °FSunny.15 mph39%30.00 "Hg10 mi
7:56 am67 °FSunny.10 mph42%30.00 "Hg10 mi
6:56 am65 °FPassing clouds.6 mph47%29.97 "Hg10 mi
5:56 am65 °FPassing clouds.8 mph47%29.96 "Hg10 mi
4:56 am66 °FClear.9 mph47%29.94 "Hg10 mi
3:56 am67 °FPassing clouds.8 mph45%29.93 "Hg10 mi
2:56 am70 °FPassing clouds.9 mph42%29.89 "Hg10 mi
1:56 am71 °FClear.16 mph41%29.90 "Hg10 mi
12:56 am71 °FClear.14 mph41%29.85 "Hg10 mi
Weather by CustomWeather, © 2017

See weather overviewHow to use our weather pages